Location: Caltech
(34.1382°N, 118.1253°W)
Time: 17:54:29
(UTC-08:00)

Sapphire - Visible Passes

Search period start: 03 December 2016 00:00
Search period end: 13 December 2016 00:00
Orbit: 788 x 794 km, 67.1° (Epoch: 02 December)

Date Brightness Start Highest point End Pass type
(mag) Time Alt. Az. Time Alt. Az. Time Alt. Az.
11 Dec ? 18:38:14 10° N 18:39:03 14° N 18:39:03 14° N visible
12 Dec ? 18:08:03 10° N 18:10:04 17° NNE 18:10:04 17° NNE visible
12 Dec ? 19:50:23 10° NW 19:50:52 12° NW 19:50:52 12° NW visible
